Time,TemperatureF,DewpointF,PressureIn,WindDirection,WindDirectionDegrees,WindSpeedMPH,WindSpeedGustMPH,Humidity,HourlyPrecipIn,Conditions,Clouds,dailyrainin,SoftwareType,DateUTC
2013-04-16 00:03:00,39.0,25.0,29.79,SSE,168,0.0,4.0,56,0.00,,,0.75,,2013-04-16 04:03:00,
2013-04-16 00:12:00,39.0,25.0,29.79,SSE,168,0.0,4.0,56,0.00,,,0.75,,2013-04-16 04:12:00,
2013-04-16 00:23:00,39.0,25.0,29.79,ENE,69,0.0,7.0,56,0.00,,,0.75,,2013-04-16 04:23:00,
2013-04-16 00:33:00,39.0,25.0,29.78,SSE,148,0.0,4.0,57,0.00,,,0.75,,2013-04-16 04:33:00,
2013-04-16 00:42:00,39.0,25.0,29.78,SSE,148,0.0,4.0,57,0.00,,,0.75,,2013-04-16 04:42:00,
2013-04-16 00:53:00,39.0,25.0,29.79,SSE,161,0.0,4.0,57,0.00,,,0.75,,2013-04-16 04:53:00,
2013-04-16 01:02:00,39.0,25.0,29.80,West,272,1.0,6.0,58,0.00,,,0.75,,2013-04-16 05:02:00,
2013-04-16 01:12:00,39.0,25.0,29.80,West,272,1.0,6.0,58,0.00,,,0.75,,2013-04-16 05:12:00,
2013-04-16 01:22:00,38.0,25.0,29.80,WSW,240,1.0,6.0,58,0.00,,,0.75,,2013-04-16 05:22:00,
2013-04-16 01:32:00,38.0,25.0,29.81,WSW,247,0.0,7.0,59,0.00,,,0.75,,2013-04-16 05:32:00,
2013-04-16 01:42:00,38.0,25.0,29.81,WSW,247,0.0,7.0,59,0.00,,,0.75,,2013-04-16 05:42:00,
2013-04-16 01:52:00,38.0,25.0,29.80,South,183,0.0,2.0,59,0.00,,,0.75,,2013-04-16 05:52:00,
2013-04-16 02:02:00,38.0,25.0,29.81,SSE,158,0.0,3.0,59,0.00,,,0.75,,2013-04-16 06:02:00,
2013-04-16 02:12:00,38.0,25.0,29.81,SSE,158,0.0,3.0,59,0.00,,,0.75,,2013-04-16 06:12:00,
2013-04-16 02:22:00,38.0,25.0,29.82,SSE,167,0.0,4.0,60,0.00,,,0.74,,2013-04-16 06:22:00,
2013-04-16 02:32:00,38.0,26.0,29.83,South,184,0.0,2.0,61,0.00,,,0.74,,2013-04-16 06:32:00,
2013-04-16 02:42:00,38.0,26.0,29.83,South,184,0.0,2.0,61,0.00,,,0.74,,2013-04-16 06:42:00,
2013-04-16 02:52:00,38.0,26.0,29.83,South,184,0.0,2.0,61,0.00,,,0.74,,2013-04-16 06:52:00,
2013-04-16 03:02:00,38.0,26.0,29.82,South,177,0.0,5.0,62,0.00,,,0.74,,2013-04-16 07:02:00,
2013-04-16 03:12:00,38.0,26.0,29.82,South,177,0.0,5.0,62,0.00,,,0.74,,2013-04-16 07:12:00,
2013-04-16 03:22:00,37.0,25.0,29.82,South,173,1.0,5.0,62,0.00,,,0.74,,2013-04-16 07:22:00,
2013-04-16 03:32:00,37.0,26.0,29.82,SSW,193,1.0,6.0,63,0.00,,,0.71,,2013-04-16 07:32:00,
2013-04-16 03:42:00,37.0,26.0,29.82,SSW,193,1.0,6.0,63,0.00,,,0.71,,2013-04-16 07:42:00,
2013-04-16 03:53:00,37.0,26.0,29.83,SSE,163,1.0,8.0,63,0.00,,,0.71,,2013-04-16 07:53:00,
2013-04-16 04:02:00,37.0,26.0,29.83,South,181,0.0,3.0,64,0.00,,,0.71,,2013-04-16 08:02:00,
2013-04-16 04:12:00,37.0,26.0,29.83,South,181,0.0,3.0,64,0.00,,,0.71,,2013-04-16 08:12:00,
2013-04-16 04:22:00,37.0,26.0,29.82,SSE,167,0.0,4.0,64,0.00,,,0.71,,2013-04-16 08:22:00,
2013-04-16 04:32:00,37.0,26.0,29.81,SSW,213,0.0,3.0,64,0.00,,,0.66,,2013-04-16 08:32:00,
2013-04-16 04:42:00,37.0,26.0,29.81,SSW,213,0.0,3.0,64,0.00,,,0.66,,2013-04-16 08:42:00,
2013-04-16 04:52:00,37.0,26.0,29.82,SSW,213,0.0,2.0,64,0.00,,,0.66,,2013-04-16 08:52:00,
2013-04-16 05:02:00,37.0,26.0,29.84,SSW,202,0.0,3.0,65,0.00,,,0.66,,2013-04-16 09:02:00,
2013-04-16 05:12:00,37.0,26.0,29.84,SSW,202,0.0,3.0,65,0.00,,,0.66,,2013-04-16 09:12:00,
2013-04-16 05:22:00,36.0,26.0,29.84,South,191,1.0,4.0,66,0.00,,,0.66,,2013-04-16 09:22:00,
2013-04-16 05:33:00,36.0,25.0,29.84,South,191,0.0,3.0,65,0.00,,,0.55,,2013-04-16 09:33:00,
2013-04-16 05:42:00,36.0,25.0,29.84,South,191,0.0,3.0,65,0.00,,,0.55,,2013-04-16 09:42:00,
2013-04-16 05:52:00,36.0,26.0,29.84,South,191,0.0,2.0,66,0.00,,,0.55,,2013-04-16 09:52:00,
2013-04-16 06:03:00,36.0,26.0,29.85,South,191,0.0,1.0,66,0.00,,,0.55,,2013-04-16 10:03:00,
2013-04-16 06:13:00,36.0,26.0,29.85,South,191,0.0,1.0,66,0.00,,,0.55,,2013-04-16 10:13:00,
2013-04-16 06:23:00,36.0,26.0,29.85,West,263,2.0,9.0,67,0.00,,,0.55,,2013-04-16 10:23:00,
2013-04-16 06:33:00,37.0,27.0,29.85,WSW,257,0.0,4.0,66,0.00,,,0.43,,2013-04-16 10:33:00,
2013-04-16 06:42:00,37.0,27.0,29.85,WSW,257,0.0,4.0,66,0.00,,,0.43,,2013-04-16 10:42:00,
2013-04-16 06:52:00,37.0,27.0,29.85,WSW,256,0.0,2.0,66,0.00,,,0.43,,2013-04-16 10:52:00,
2013-04-16 07:02:00,37.0,27.0,29.86,WSW,257,0.0,5.0,66,0.00,,,0.43,,2013-04-16 11:02:00,
2013-04-16 07:12:00,37.0,27.0,29.86,WSW,257,0.0,5.0,66,0.00,,,0.43,,2013-04-16 11:12:00,
2013-04-16 07:22:00,37.0,26.0,29.88,WSW,255,0.0,6.0,65,0.00,,,0.43,,2013-04-16 11:22:00,
2013-04-16 07:32:00,37.0,27.0,29.86,WSW,255,0.0,3.0,66,0.00,,,0.38,,2013-04-16 11:32:00,
2013-04-16 07:42:00,37.0,27.0,29.86,WSW,255,0.0,3.0,66,0.00,,,0.38,,2013-04-16 11:42:00,
2013-04-16 07:52:00,37.0,27.0,29.88,WSW,252,1.0,5.0,66,0.00,,,0.38,,2013-04-16 11:52:00,
2013-04-16 08:02:00,37.0,27.0,29.88,WSW,250,0.0,6.0,66,0.00,,,0.38,,2013-04-16 12:02:00,
2013-04-16 08:12:00,37.0,27.0,29.88,WSW,250,0.0,6.0,66,0.00,,,0.38,,2013-04-16 12:12:00,
2013-04-16 08:22:00,37.0,27.0,29.90,WSW,252,1.0,13.0,66,0.00,,,0.38,,2013-04-16 12:22:00,
2013-04-16 08:32:00,38.0,28.0,29.90,West,273,0.0,9.0,66,0.00,,,0.37,,2013-04-16 12:32:00,
2013-04-16 08:42:00,38.0,28.0,29.90,West,273,0.0,9.0,66,0.00,,,0.37,,2013-04-16 12:42:00,
2013-04-16 08:52:00,38.0,28.0,29.91,WNW,288,0.0,8.0,66,0.00,,,0.37,,2013-04-16 12:52:00,
2013-04-16 09:02:00,38.0,28.0,29.91,South,181,2.0,8.0,66,0.00,,,0.37,,2013-04-16 13:02:00,
2013-04-16 09:12:00,38.0,28.0,29.91,South,181,2.0,8.0,66,0.00,,,0.37,,2013-04-16 13:12:00,
2013-04-16 09:22:00,38.0,28.0,29.92,WSW,257,2.0,8.0,66,0.00,,,0.37,,2013-04-16 13:22:00,
2013-04-16 09:32:00,39.0,28.0,29.93,West,260,3.0,11.0,64,0.00,,,0.33,,2013-04-16 13:32:00,
2013-04-16 09:42:00,39.0,28.0,29.93,West,260,3.0,11.0,64,0.00,,,0.33,,2013-04-16 13:42:00,
2013-04-16 09:52:00,39.0,27.0,29.94,West,262,1.0,7.0,63,0.00,,,0.33,,2013-04-16 13:52:00,
2013-04-16 10:02:00,39.0,27.0,29.95,West,270,5.0,13.0,61,0.00,,,0.33,,2013-04-16 14:02:00,
2013-04-16 10:12:00,39.0,27.0,29.95,West,270,5.0,13.0,61,0.00,,,0.33,,2013-04-16 14:12:00,
2013-04-16 10:22:00,40.0,28.0,29.95,West,259,0.0,10.0,62,0.00,,,0.33,,2013-04-16 14:22:00,
2013-04-16 10:32:00,40.0,27.0,29.96,WSW,257,3.0,14.0,60,0.00,,,0.28,,2013-04-16 14:32:00,
2013-04-16 10:42:00,40.0,27.0,29.96,WSW,257,3.0,14.0,60,0.00,,,0.28,,2013-04-16 14:42:00,
2013-04-16 10:52:00,40.0,27.0,29.96,West,263,3.0,11.0,59,0.00,,,0.28,,2013-04-16 14:52:00,
2013-04-16 11:02:00,41.0,28.0,29.98,WSW,242,2.0,15.0,60,0.00,,,0.28,,2013-04-16 15:02:00,
2013-04-16 11:12:00,41.0,28.0,29.98,WSW,242,2.0,15.0,60,0.00,,,0.28,,2013-04-16 15:12:00,
2013-04-16 11:22:00,41.0,28.0,29.98,West,264,3.0,12.0,59,0.00,,,0.28,,2013-04-16 15:22:00,
2013-04-16 11:33:00,41.0,27.0,29.99,NW,314,1.0,10.0,58,0.00,,,0.15,,2013-04-16 15:33:00,
2013-04-16 11:43:00,41.0,27.0,29.99,NW,314,1.0,10.0,58,0.00,,,0.15,,2013-04-16 15:43:00,
2013-04-16 11:53:00,41.0,27.0,29.99,WSW,248,1.0,14.0,57,0.00,,,0.15,,2013-04-16 15:53:00,
2013-04-16 12:03:00,42.0,28.0,30.01,WNW,289,2.0,15.0,57,0.00,,,0.15,,2013-04-16 16:03:00,
2013-04-16 12:13:00,42.0,28.0,30.01,WNW,289,2.0,15.0,57,0.00,,,0.15,,2013-04-16 16:13:00,
2013-04-16 12:23:00,42.0,27.0,30.02,WNW,291,4.0,13.0,56,0.00,,,0.15,,2013-04-16 16:23:00,
2013-04-16 12:32:00,42.0,27.0,30.02,WNW,299,4.0,14.0,54,0.00,,,0.05,,2013-04-16 16:32:00,
2013-04-16 12:42:00,42.0,27.0,30.02,WNW,299,4.0,14.0,54,0.00,,,0.05,,2013-04-16 16:42:00,
2013-04-16 12:52:00,42.0,27.0,30.03,West,259,4.0,9.0,55,0.00,,,0.05,,2013-04-16 16:52:00,
2013-04-16 13:02:00,43.0,28.0,30.03,WSW,257,3.0,11.0,54,0.00,,,0.05,,2013-04-16 17:02:00,
2013-04-16 13:12:00,43.0,28.0,30.03,WSW,257,3.0,11.0,54,0.00,,,0.05,,2013-04-16 17:12:00,
2013-04-16 13:22:00,43.0,28.0,30.04,West,273,1.0,14.0,54,0.00,,,0.05,,2013-04-16 17:22:00,
2013-04-16 13:32:00,42.0,29.0,30.05,NW,311,3.0,12.0,59,0.00,,,0.00,,2013-04-16 17:32:00,
2013-04-16 13:43:00,42.0,29.0,30.05,NW,311,3.0,12.0,59,0.00,,,0.00,,2013-04-16 17:43:00,
2013-04-16 13:52:00,43.0,27.0,30.05,WSW,254,2.0,13.0,53,0.00,,,0.00,,2013-04-16 17:52:00,
2013-04-16 14:02:00,44.0,27.0,30.06,WNW,302,2.0,13.0,51,0.00,,,0.00,,2013-04-16 18:02:00,
2013-04-16 14:12:00,44.0,27.0,30.06,WNW,302,2.0,13.0,51,0.00,,,0.00,,2013-04-16 18:12:00,
2013-04-16 14:22:00,42.0,31.0,30.07,North,360,2.0,7.0,64,0.00,,,0.00,,2013-04-16 18:22:00,
2013-04-16 14:32:00,42.0,28.0,30.08,WNW,294,4.0,12.0,58,0.00,,,0.00,,2013-04-16 18:32:00,
2013-04-16 14:42:00,42.0,28.0,30.08,WNW,294,4.0,12.0,58,0.00,,,0.00,,2013-04-16 18:42:00,
2013-04-16 14:52:00,41.0,30.0,30.08,NNE,17,3.0,12.0,65,0.00,,,0.00,,2013-04-16 18:52:00,
2013-04-16 15:02:00,40.0,31.0,30.09,NW,316,4.0,10.0,71,0.00,,,0.00,,2013-04-16 19:02:00,
2013-04-16 15:12:00,40.0,31.0,30.09,NW,316,4.0,10.0,71,0.00,,,0.00,,2013-04-16 19:12:00,
2013-04-16 15:22:00,41.0,31.0,30.10,NNE,19,6.0,13.0,67,0.00,,,0.00,,2013-04-16 19:22:00,
2013-04-16 15:32:00,41.0,31.0,30.11,NNE,18,6.0,14.0,66,0.00,,,0.00,,2013-04-16 19:32:00,
2013-04-16 15:42:00,41.0,31.0,30.11,NNE,18,6.0,14.0,66,0.00,,,0.00,,2013-04-16 19:42:00,
2013-04-16 15:52:00,40.0,30.0,30.12,NNE,28,3.0,17.0,68,0.00,,,0.00,,2013-04-16 19:52:00,
2013-04-16 16:02:00,39.0,29.0,30.12,North,10,7.0,15.0,67,0.00,,,0.00,,2013-04-16 20:02:00,
2013-04-16 16:12:00,39.0,29.0,30.12,North,10,7.0,15.0,67,0.00,,,0.00,,2013-04-16 20:12:00,
2013-04-16 16:22:00,39.0,29.0,30.13,NNE,22,7.0,14.0,66,0.00,,,0.00,,2013-04-16 20:22:00,
2013-04-16 16:32:00,39.0,29.0,30.14,NNE,19,7.0,19.0,67,0.00,,,0.00,,2013-04-16 20:32:00,
2013-04-16 16:42:00,39.0,29.0,30.14,NNE,19,7.0,19.0,67,0.00,,,0.00,,2013-04-16 20:42:00,
2013-04-16 16:52:00,38.0,28.0,30.15,North,350,6.0,17.0,68,0.00,,,0.00,,2013-04-16 20:52:00,
2013-04-16 17:02:00,38.0,29.0,30.15,North,9,6.0,14.0,69,0.00,,,0.00,,2013-04-16 21:02:00,
2013-04-16 17:12:00,38.0,29.0,30.15,North,9,6.0,14.0,69,0.00,,,0.00,,2013-04-16 21:12:00,
2013-04-16 17:22:00,38.0,29.0,30.15,NNE,13,8.0,17.0,70,0.00,,,0.00,,2013-04-16 21:22:00,
2013-04-16 17:32:00,38.0,28.0,30.15,WNW,295,6.0,12.0,68,0.00,,,0.00,,2013-04-16 21:32:00,
2013-04-16 17:43:00,38.0,28.0,30.15,WNW,295,6.0,12.0,68,0.00,,,0.00,,2013-04-16 21:43:00,
2013-04-16 17:52:00,39.0,29.0,30.16,North,360,8.0,15.0,66,0.00,,,0.00,,2013-04-16 21:52:00,
2013-04-16 18:02:00,39.0,28.0,30.16,NNE,17,5.0,14.0,64,0.00,,,0.00,,2013-04-16 22:02:00,
2013-04-16 18:13:00,39.0,28.0,30.16,NNE,17,5.0,14.0,64,0.00,,,0.00,,2013-04-16 22:13:00,
2013-04-16 18:22:00,39.0,27.0,30.17,NW,323,6.0,16.0,62,0.00,,,0.00,,2013-04-16 22:22:00,
2013-04-16 18:33:00,39.0,27.0,30.19,NNE,24,6.0,15.0,62,0.00,,,0.00,,2013-04-16 22:33:00,
2013-04-16 18:42:00,39.0,27.0,30.19,NNE,24,6.0,15.0,62,0.00,,,0.00,,2013-04-16 22:42:00,
2013-04-16 18:52:00,39.0,27.0,30.20,NW,323,6.0,15.0,61,0.00,,,0.00,,2013-04-16 22:52:00,
2013-04-16 19:02:00,39.0,27.0,30.21,NNE,22,6.0,15.0,63,0.00,,,0.00,,2013-04-16 23:02:00,
2013-04-16 19:12:00,39.0,27.0,30.21,NNE,22,6.0,15.0,63,0.00,,,0.00,,2013-04-16 23:12:00,
2013-04-16 19:22:00,39.0,27.0,30.21,North,5,7.0,13.0,61,0.00,,,0.00,,2013-04-16 23:22:00,
2013-04-16 19:32:00,39.0,26.0,30.22,North,351,6.0,12.0,59,0.00,,,0.00,,2013-04-16 23:32:00,
2013-04-16 19:42:00,39.0,26.0,30.22,North,351,6.0,12.0,59,0.00,,,0.00,,2013-04-16 23:42:00,
2013-04-16 19:52:00,38.0,26.0,30.23,NW,323,5.0,16.0,61,0.00,,,0.00,,2013-04-16 23:52:00,
2013-04-16 20:02:00,38.0,27.0,30.24,North,350,5.0,12.0,63,0.00,,,0.00,,2013-04-17 00:02:00,
2013-04-16 20:12:00,38.0,27.0,30.24,North,350,5.0,12.0,63,0.00,,,0.00,,2013-04-17 00:12:00,
2013-04-16 20:22:00,37.0,26.0,30.24,NW,316,4.0,16.0,65,0.00,,,0.00,,2013-04-17 00:22:00,
2013-04-16 20:32:00,36.0,26.0,30.25,NNW,336,4.0,11.0,67,0.00,,,0.00,,2013-04-17 00:32:00,
2013-04-16 20:42:00,36.0,26.0,30.25,NNW,336,4.0,11.0,67,0.00,,,0.00,,2013-04-17 00:42:00,
2013-04-16 20:52:00,36.0,26.0,30.26,NNW,340,4.0,12.0,67,0.00,,,0.00,,2013-04-17 00:52:00,
2013-04-16 21:02:00,36.0,26.0,30.27,NW,321,4.0,8.0,68,0.00,,,0.00,,2013-04-17 01:02:00,
2013-04-16 21:12:00,36.0,26.0,30.27,NW,321,4.0,8.0,68,0.00,,,0.00,,2013-04-17 01:12:00,
2013-04-16 21:22:00,36.0,27.0,30.27,WNW,289,3.0,11.0,69,0.00,,,0.00,,2013-04-17 01:22:00,
2013-04-16 21:32:00,36.0,27.0,30.28,North,5,3.0,11.0,70,0.00,,,0.00,,2013-04-17 01:32:00,
2013-04-16 21:42:00,36.0,27.0,30.28,North,5,3.0,11.0,70,0.00,,,0.00,,2013-04-17 01:42:00,
2013-04-16 21:52:00,36.0,26.0,30.29,NNW,331,5.0,13.0,67,0.00,,,0.00,,2013-04-17 01:52:00,
2013-04-16 22:02:00,36.0,25.0,30.30,West,277,1.0,13.0,64,0.00,,,0.00,,2013-04-17 02:02:00,
2013-04-16 22:12:00,36.0,25.0,30.30,West,277,1.0,13.0,64,0.00,,,0.00,,2013-04-17 02:12:00,
2013-04-16 22:22:00,36.0,30.0,30.31,NNE,24,2.0,9.0,78,0.00,,,0.00,,2013-04-17 02:22:00,
2013-04-16 22:32:00,35.0,30.0,30.32,North,9,0.0,7.0,83,0.00,,,0.00,,2013-04-17 02:32:00,
2013-04-16 22:42:00,35.0,30.0,30.32,North,9,0.0,7.0,83,0.00,,,0.00,,2013-04-17 02:42:00,
2013-04-16 22:52:00,35.0,31.0,30.32,NNE,15,2.0,7.0,84,0.00,,,0.00,,2013-04-17 02:52:00,
2013-04-16 23:02:00,34.0,30.0,30.32,NNE,15,0.0,7.0,84,0.00,,,0.00,,2013-04-17 03:02:00,
2013-04-16 23:12:00,34.0,30.0,30.32,NNE,15,0.0,7.0,84,0.00,,,0.00,,2013-04-17 03:12:00,
2013-04-16 23:22:00,34.0,30.0,30.32,NNE,17,3.0,7.0,85,0.00,,,0.00,,2013-04-17 03:22:00,
2013-04-16 23:33:00,34.0,30.0,30.33,NNE,15,1.0,7.0,86,0.00,,,0.00,,2013-04-17 03:33:00,
2013-04-16 23:42:00,34.0,30.0,30.33,NNE,15,1.0,7.0,86,0.00,,,0.00,,2013-04-17 03:42:00,
2013-04-16 23:53:00,34.0,31.0,30.34,North,360,1.0,6.0,87,0.00,,,0.00,,2013-04-17 03:53:00,